Location: *
(50.8667°S, 179.2667°W)
Time: 06:59:11
(UTC+00:00)

Cosmos 2180 Rocket - Pass Details

Date: 02 October 2023
Orbit: 954 x 1003 km, 82.9° (Epoch: 10 December)

Event Time Altitude Azimuth Distance (km) Brightness Sun altitude
Exits shadow 14:04:16 67° 269° (W) 1,091 4.5 -28.1°
Maximum altitude 14:04:28 67° 257° (WSW) 1,088 4.5 -28.0°
Drops below altitude 10° 14:10:55 10° 174° (S) 2,813 7.6 -27.4°
Sets 14:13:31 0° 171° (S) 3,772 8.4 -27.1°
